Location: Unspecified
(43.4680°N, 87.1740°E)
Time: 20:54:25
(UTC+00:00)

ADEOS Rocket - Pass Details

Date: 17 April 2021
Orbit: 859 x 1306 km, 98.7° (Epoch: 11 May)

Event Time Altitude Azimuth Distance (km) Brightness Sun altitude
Exits shadow 21:43:29 22° 208° (SSW) 2,040 4.2 -17.4°
Maximum altitude 21:47:03 41° 265° (W) 1,493 3.5 -16.8°
Drops below altitude 10° 21:53:31 10° 334° (NNW) 3,050 5.7 -15.8°
Sets 21:56:26 0° 341° (NNW) 4,081 6.4 -15.4°
